Location: Unspecified
(64.9000°N, 0.0000°E)
Time: 08:51:14
(UTC+00:00)

Altair - Pass Details

Date: 21 June 2019
Orbit: 1501 x 1683 km, 47.2° (Epoch: 17 July)

Event Time Altitude Azimuth Distance (km) Brightness Sun altitude
Rises 20:57:47 0° 218° (SW) 4,749 10.0 5.2°
Reaches altitude 10° 21:01:36 10° 206° (SSW) 3,796 9.4 4.9°
Maximum altitude 21:08:39 24° 158° (SSE) 2,920 8.5 4.4°
Drops below altitude 10° 21:15:53 10° 111° (ESE) 3,902 9.1 3.9°
Sets 21:19:51 0° 99° (E) 4,912 9.7 3.7°
